• în România
  • Lista ţărilor
  • Pe 7 zile
  • Temperatura apei
  • Hartă satelitară
  • Meteo pe hartă
  • Widget-uri
  • user-avatar
    Intrare

    Meteo pe oră la Thimphu

    Astăzi, 20 Septembrie, Joi

    Timp Temperatura Precipitaţii Vânt Presiune Umiditate
    00:00 +10°C° 0 mm 1 m/s 526 mmHg 81%
    01:00 +10°C° 0 mm 1 m/s 526 mmHg 80%
    02:00 +9°C° 0 mm 1 m/s 525 mmHg 78%
    03:00 +8°C° 0 mm 2 m/s 525 mmHg 76%
    04:00 +8°C° 0 mm 2 m/s 525 mmHg 75%
    05:00 +9°C° 0 mm 1 m/s 525 mmHg 73%
    06:00 +9°C° 0 mm 1 m/s 526 mmHg 70%
    07:00 +12°C° 0 mm 1 m/s 528 mmHg 61%
    08:00 +15°C° 0 mm 1 m/s 529 mmHg 51%
    09:00 +18°C° 0 mm 1 m/s 531 mmHg 42%
    10:00 +18°C° 0 mm 2 m/s 531 mmHg 42%
    11:00 +19°C° 0 mm 2 m/s 531 mmHg 42%
    12:00 +19°C° 0 mm 2 m/s 531 mmHg 44%
    13:00 +18°C° 0.1 mm 2 m/s 531 mmHg 47%
    14:00 +18°C° 0.1 mm 2 m/s 530 mmHg 50%
    15:00 +18°C° 0.1 mm 2 m/s 529 mmHg 54%
    16:00 +16°C° 0.3 mm 2 m/s 529 mmHg 62%
    17:00 +14°C° 0.3 mm 1 m/s 528 mmHg 71%
    18:00 +12°C° 0 mm 1 m/s 527 mmHg 77%
    19:00 +12°C° 0.2 mm 1 m/s 527 mmHg 76%
    20:00 +12°C° 0.2 mm 1 m/s 527 mmHg 75%
    21:00 +11°C° 0.2 mm 1 m/s 528 mmHg 75%
    22:00 +11°C° 0.3 mm 1 m/s 527 mmHg 75%
    23:00 +11°C° 0.3 mm 1 m/s 527 mmHg 75%

    Mâine, 21 Septembrie, Vineri

    Timp Temperatura Precipitaţii Vânt Presiune Umiditate
    00:00 +11°C° 0.3 mm 1 m/s 527 mmHg 75%
    01:00 +11°C° 0.2 mm 1 m/s 527 mmHg 75%
    02:00 +11°C° 0.2 mm 1 m/s 527 mmHg 76%
    03:00 +10°C° 0.2 mm 1 m/s 526 mmHg 76%
    04:00 +10°C° 0.2 mm 1 m/s 526 mmHg 76%
    05:00 +10°C° 0.2 mm 1 m/s 527 mmHg 76%
    06:00 +10°C° 0.2 mm 1 m/s 527 mmHg 77%
    07:00 +12°C° 0.2 mm 1 m/s 528 mmHg 72%
    08:00 +14°C° 0.2 mm 1 m/s 529 mmHg 67%
    09:00 +15°C° 0.2 mm 1 m/s 531 mmHg 62%
    10:00 +16°C° 0.1 mm 1 m/s 531 mmHg 60%
    11:00 +17°C° 0.1 mm 2 m/s 531 mmHg 58%
    12:00 +19°C° 0.1 mm 2 m/s 532 mmHg 57%
    13:00 +18°C° 0.2 mm 2 m/s 531 mmHg 60%
    14:00 +17°C° 0.2 mm 2 m/s 530 mmHg 64%
    15:00 +17°C° 0.2 mm 2 m/s 529 mmHg 68%
    16:00 +15°C° 0.2 mm 2 m/s 529 mmHg 75%
    17:00 +14°C° 0.2 mm 1 m/s 528 mmHg 82%
    18:00 +12°C° 0.2 mm 1 m/s 527 mmHg 89%
    19:00 +12°C° 0.2 mm 1 m/s 528 mmHg 90%
    20:00 +12°C° 0.2 mm 1 m/s 528 mmHg 90%
    21:00 +11°C° 0.2 mm 1 m/s 528 mmHg 90%
    22:00 +11°C° 0.2 mm 1 m/s 528 mmHg 90%
    23:00 +11°C° 0.2 mm 1 m/s 528 mmHg 89%

    Poimâine, 22 Septembrie, Sâmbătă

    Timp Temperatura Precipitaţii Vânt Presiune Umiditate
    00:00 +11°C° 0.2 mm 1 m/s 528 mmHg 88%
    01:00 +11°C° 0 mm 1 m/s 528 mmHg 86%
    02:00 +11°C° 0 mm 1 m/s 528 mmHg 85%
    03:00 +10°C° 0 mm 1 m/s 528 mmHg 84%
    04:00 +10°C° 0 mm 1 m/s 527 mmHg 83%
    05:00 +10°C° 0 mm 1 m/s 527 mmHg 82%
    06:00 +10°C° 0 mm 1 m/s 527 mmHg 81%
    07:00 +12°C° 0 mm 1 m/s 529 mmHg 75%
    08:00 +14°C° 0 mm 1 m/s 530 mmHg 69%
    09:00 +16°C° 0 mm 1 m/s 532 mmHg 63%
    10:00 +17°C° 0.1 mm 2 m/s 532 mmHg 61%
    11:00 +18°C° 0.1 mm 2 m/s 532 mmHg 60%
    12:00 +19°C° 0.1 mm 2 m/s 532 mmHg 58%
    13:00 +18°C° 0.1 mm 2 m/s 531 mmHg 62%
    14:00 +17°C° 0.1 mm 2 m/s 530 mmHg 66%
    15:00 +17°C° 0.1 mm 2 m/s 529 mmHg 69%
    16:00 +15°C° 0 mm 2 m/s 529 mmHg 77%
    17:00 +14°C° 0 mm 1 m/s 528 mmHg 84%
    18:00 +13°C° 0 mm 1 m/s 527 mmHg 92%
    19:00 +12°C° 0 mm 1 m/s 527 mmHg 92%
    20:00 +12°C° 0 mm 1 m/s 528 mmHg 91%
    21:00 +11°C° 0 mm 1 m/s 528 mmHg 91%
    22:00 +11°C° 0.1 mm 1 m/s 528 mmHg 88%
    23:00 +11°C° 0.1 mm 1 m/s 528 mmHg 86%

    23 Septembrie, Duminică

    Timp Temperatura Precipitaţii Vânt Presiune Umiditate
    00:00 +11°C° 0.1 mm 1 m/s 528 mmHg 84%
    01:00 +11°C° 0 mm 1 m/s 528 mmHg 82%
    02:00 +10°C° 0 mm 1 m/s 527 mmHg 81%
    03:00 +10°C° 0 mm 1 m/s 527 mmHg 79%
    04:00 +10°C° 0 mm 1 m/s 527 mmHg 79%
    05:00 +10°C° 0 mm 1 m/s 527 mmHg 79%
    06:00 +10°C° 0 mm 1 m/s 527 mmHg 79%
    07:00 +12°C° 0 mm 1 m/s 529 mmHg 74%
    08:00 +14°C° 0 mm 1 m/s 530 mmHg 69%
    09:00 +16°C° 0 mm 1 m/s 532 mmHg 64%
    10:00 +17°C° 0.1 mm 2 m/s 532 mmHg 64%
    11:00 +17°C° 0.1 mm 2 m/s 531 mmHg 64%
    12:00 +18°C° 0.1 mm 2 m/s 531 mmHg 63%
    13:00 +17°C° 0.3 mm 2 m/s 530 mmHg 67%
    14:00 +17°C° 0.3 mm 2 m/s 529 mmHg 71%
    15:00 +16°C° 0.3 mm 2 m/s 528 mmHg 76%
    16:00 +15°C° 0.1 mm 2 m/s 528 mmHg 81%
    17:00 +14°C° 0.1 mm 1 m/s 527 mmHg 87%
    18:00 +13°C° 0.1 mm 1 m/s 527 mmHg 93%
    19:00 +12°C° 0.1 mm 1 m/s 527 mmHg 93%
    20:00 +11°C° 0.1 mm 0 m/s 527 mmHg 92%
    21:00 +11°C° 0.1 mm 0 m/s 528 mmHg 92%
    22:00 +11°C° 0 mm 0 m/s 527 mmHg 92%
    23:00 +10°C° 0 mm 0 m/s 527 mmHg 91%

    24 Septembrie, Luni

    Timp Temperatura Precipitaţii Vânt Presiune Umiditate
    00:00 +10°C° 0 mm 0 m/s 527 mmHg 91%
    01:00 +10°C° 0 mm 0 m/s 526 mmHg 90%
    02:00 +10°C° 0 mm 0 m/s 526 mmHg 89%
    03:00 +10°C° 0 mm 0 m/s 526 mmHg 89%
    04:00 +9°C° 0 mm 0 m/s 526 mmHg 89%
    05:00 +9°C° 0 mm 0 m/s 526 mmHg 90%
    06:00 +9°C° 0 mm 0 m/s 526 mmHg 90%
    07:00 +12°C° 0 mm 1 m/s 527 mmHg 84%
    08:00 +13°C° 0 mm 1 m/s 528 mmHg 79%
    09:00 +15°C° 0 mm 1 m/s 529 mmHg 74%
    10:00 +16°C° 0.1 mm 2 m/s 529 mmHg 71%
    11:00 +16°C° 0.1 mm 2 m/s 529 mmHg 69%
    12:00 +17°C° 0.1 mm 2 m/s 529 mmHg 67%
    13:00 +16°C° 0.2 mm 2 m/s 528 mmHg 71%
    14:00 +16°C° 0.2 mm 2 m/s 527 mmHg 75%
    15:00 +15°C° 0.2 mm 2 m/s 526 mmHg 79%
    16:00 +14°C° 0.1 mm 2 m/s 526 mmHg 84%
    17:00 +13°C° 0.1 mm 1 m/s 525 mmHg 88%
    18:00 +12°C° 0.1 mm 1 m/s 525 mmHg 93%
    19:00 +12°C° 0 mm 1 m/s 525 mmHg 93%
    20:00 +12°C° 0 mm 1 m/s 526 mmHg 93%
    21:00 +11°C° 0 mm 0 m/s 526 mmHg 94%
    22:00 +11°C° 0 mm 0 m/s 526 mmHg 93%
    23:00 +10°C° 0 mm 0 m/s 526 mmHg 92%

    25 Septembrie, Marţi

    Timp Temperatura Precipitaţii Vânt Presiune Umiditate
    00:00 +10°C° 0 mm 0 m/s 525 mmHg 92%
    01:00 +10°C° 0 mm 0 m/s 525 mmHg 91%
    02:00 +10°C° 0 mm 0 m/s 525 mmHg 90%
    03:00 +10°C° 0 mm 0 m/s 524 mmHg 89%
    04:00 +9°C° 0 mm 0 m/s 524 mmHg 89%
    05:00 +9°C° 0 mm 0 m/s 524 mmHg 90%
    06:00 +9°C° 0 mm 0 m/s 525 mmHg 90%
    07:00 +12°C° 0 mm 1 m/s 526 mmHg 84%
    08:00 +13°C° 0 mm 1 m/s 527 mmHg 78%
    09:00 +15°C° 0 mm 1 m/s 528 mmHg 71%
    10:00 +16°C° 0.1 mm 2 m/s 528 mmHg 69%
    11:00 +17°C° 0.1 mm 2 m/s 528 mmHg 67%
    12:00 +18°C° 0.1 mm 2 m/s 528 mmHg 64%
    13:00 +17°C° 0.1 mm 2 m/s 527 mmHg 69%
    14:00 +16°C° 0.1 mm 2 m/s 526 mmHg 74%
    15:00 +15°C° 0.1 mm 2 m/s 525 mmHg 79%
    16:00 +14°C° 0.1 mm 2 m/s 525 mmHg 84%
    17:00 +13°C° 0.1 mm 1 m/s 524 mmHg 89%
    18:00 +12°C° 0.1 mm 1 m/s 524 mmHg 94%
    19:00 +12°C° 0.1 mm 1 m/s 525 mmHg 94%
    20:00 +12°C° 0.1 mm 1 m/s 525 mmHg 94%
    21:00 +12°C° 0.1 mm 1 m/s 525 mmHg 94%
    22:00 +11°C° 0 mm 0 m/s 525 mmHg 94%
    23:00 +11°C° 0 mm 0 m/s 525 mmHg 93%
    Arată mai mult